[[{"header":{"parameterUnit":"m.s-1","parameterCategory":1,"la1":30.2992,"la2":30.254,"lo1":-89.0895,"lo2":-89.0443,"dy":0.0025,"dx":0.0025,"nx":19,"ny":19,"refTime":"2026-04-09T03:00:00:Z","depth":0,"parameterNumber":2,"parameterNumberName":"U-component_of_WINDS"},"data":[0,0,0,-4.1937,-4.1937,-4.1924,-4.1923,-4.1957,-4.1957,0,0,0,0,0,0,0,0,0,0,0,-4.197,-4.1971,-4.1937,-4.1938,-4.1924,-4.1923,-4.1956,-4.1957,0,0,0,0,0,0,0,0,0,0,0,-4.1969,-4.1971,-4.1972,-4.1938,-4.1924,-4.1923,-4.1956,-4.1949,0,0,0,0,0,0,0,0,0,0,-4.1954,-4.2012,-4.197,-4.1972,-4.1938,-4.1924,-4.1923,-4.1948,-4.195,-4.1984,0,-4.202,0,-4.199,-4.1963,-4.1963,0,0,0,-4.1917,-4.2011,-4.1981,-4.1973,-4.1938,-4.1924,-4.1924,-4.1948,-4.195,-4.1987,-4.202,-4.202,-4.199,-4.1963,-4.1964,-4.2228,-4.223,0,0,-4.1917,-4.1983,-4.198,-4.1984,-4.1986,-4.1925,-4.1924,-4.1949,-4.1991,-4.202,-4.202,-4.1991,-4.1964,-4.1964,-4.2225,-4.2228,0,0,0,-4.1934,-4.1985,-4.1953,-4.1983,-4.1977,-4.1925,-4.1924,-4.199,-4.1974,-4.202,-4.1991,-4.1964,-4.1965,-4.2223,-4.2227,-4.2399,0,0,0,-4.1933,-4.1994,-4.1955,-4.1995,-4.1978,-4.1983,-4.1965,-4.1972,-4.1973,-4.1991,-4.1964,-4.1966,-4.222,-4.2225,-4.2389,-4.247,0,0,0,-4.1961,-4.1997,-4.2005,-4.1999,-4.1995,-4.1981,-4.1965,-4.197,-4.1956,-4.1963,-4.1966,-4.2219,-4.2224,-4.238,-4.2455,-4.2559,0,0,0,-4.2011,-4.216,-4.2009,-4.2164,-4.1995,-4.2087,-4.1964,-4.203,-4.2057,-4.1965,-4.2221,-4.2226,-4.2377,-4.2446,-4.255,-4.2659,-4.271,0,0,-4.2235,-4.2189,-4.2275,-4.214,-4.2275,-4.2084,-4.2245,-4.2208,-4.215,-4.2206,-4.2211,-4.2393,-4.2454,-4.2557,-4.2974,-4.3016,0,0,0,-4.2369,-4.2432,-4.2453,-4.248,-4.2455,-4.244,-4.237,-4.2357,-4.2401,-4.2191,-4.2456,-4.2491,-4.2549,-4.2597,-4.2633,-4.2678,-4.2251,-4.2251,-4.225,-4.2782,-4.2698,-4.2835,-4.2749,-4.2778,-4.2705,-4.2721,-4.269,-4.2598,-4.2662,-4.2678,-4.2941,-4.3001,-4.3027,-4.3076,-4.2728,-4.2729,-4.273,-4.273,-4.3104,-4.318,-4.3052,-4.3139,-4.3051,-4.3124,-4.3061,-4.2993,-4.3049,-4.2922,-4.2969,-4.2837,-4.3075,-4.3113,-4.2742,-4.274,-4.2739,-4.2738,-4.2737,-4.3365,-4.3387,-4.3366,-4.3398,-4.3432,-4.3341,-4.3401,-4.3318,-4.324,-4.3287,-4.3295,-4.3292,-4.3279,-4.3296,-4.3297,-4.3298,-4.3299,-4.33,-4.33,-4.3644,-4.3616,-4.3675,-4.3661,-4.3668,-4.3667,-4.3596,-4.3601,-4.3587,-4.3521,-4.3521,-4.3424,-4.3113,-4.3037,-4.3314,-4.3312,-4.331,-4.3309,-4.3308,-4.4002,-4.3907,-4.4,-4.4007,-4.3984,-4.4024,-4.3917,-4.3936,-4.3928,-4.3961,-4.3853,-4.3637,-4.3584,-4.3556,-4.3492,-4.387,-4.387,-4.387,-4.387,-4.4223,-4.4187,-4.4262,-4.428,-4.4287,-4.42,-4.431,-4.4257,-4.4189,-4.4179,-4.4113,-4.4021,-4.3996,-4.3958,-4.3921,-4.386,-4.4323,-4.4324,-4.4324,-4.4438,-4.4399,-4.4507,-4.4437,-4.4413,-4.4395,-4.4495,-4.4522,-4.4425,-4.4341,-4.417,-4.4151,-4.4003,-4.3959,-4.3871,-4.3815,-4.3702,0,0]},{"header":{"parameterUnit":"m.s-1","parameterCategory":1,"la1":30.2992,"la2":30.254,"lo1":-89.0895,"lo2":-89.0443,"dy":0.0025,"dx":0.0025,"nx":19,"ny":19,"refTime":"2026-04-09T03:00:00:Z","depth":0,"parameterNumber":3,"parameterNumberName":"V-component_of_WINDS"},"data":[0,0,0,2.0913,2.0912,2.0892,2.0892,2.086,2.0859,0,0,0,0,0,0,0,0,0,0,0,2.0916,2.0916,2.0913,2.0912,2.0892,2.0892,2.086,2.0859,0,0,0,0,0,0,0,0,0,0,0,2.0916,2.0916,2.0916,2.0912,2.0892,2.0892,2.086,2.0877,0,0,0,0,0,0,0,0,0,0,2.0897,2.0899,2.0916,2.0916,2.0912,2.0892,2.0892,2.0878,2.0876,2.0867,0,2.086,0,2.0859,2.0857,2.0857,0,0,0,2.0913,2.0901,2.0898,2.0916,2.0912,2.0892,2.0901,2.0877,2.0874,2.0864,2.0859,2.0858,2.0859,2.0857,2.0856,2.0807,2.0806,0,0,2.0914,2.0911,2.0899,2.0896,2.0901,2.0902,2.0901,2.0875,2.0869,2.0859,2.0857,2.0858,2.0856,2.0856,2.0807,2.0807,0,0,0,2.0917,2.0912,2.0909,2.0897,2.0894,2.0901,2.09,2.087,2.087,2.0857,2.0858,2.0856,2.0856,2.0807,2.0807,2.079,0,0,0,2.0917,2.0913,2.091,2.0907,2.0895,2.0882,2.0895,2.0871,2.0869,2.0858,2.0856,2.0855,2.0808,2.0807,2.0792,2.0782,0,0,0,2.0918,2.0913,2.091,2.0907,2.0899,2.0883,2.0881,2.0871,2.0869,2.0857,2.0855,2.0808,2.0807,2.0793,2.0784,2.0768,0,0,0,2.0918,2.0894,2.091,2.0883,2.0899,2.0874,2.0881,2.0862,2.085,2.0856,2.0807,2.0807,2.0793,2.0785,2.077,2.0754,2.0748,0,0,2.0886,2.089,2.0875,2.0888,2.086,2.0877,2.0846,2.0836,2.0837,2.0816,2.0815,2.0791,2.0784,2.0769,2.0716,2.0711,0,0,0,2.0864,2.0853,2.0846,2.0835,2.083,2.0823,2.082,2.0817,2.08,2.0826,2.0782,2.0778,2.0769,2.0762,2.0757,2.075,2.0804,2.0804,2.0804,2.0811,2.0817,2.0792,2.0795,2.0785,2.0783,2.0774,2.077,2.0775,2.0765,2.0758,2.0726,2.0717,2.0714,2.0706,2.0752,2.0752,2.0751,2.0751,2.0764,2.0749,2.0761,2.0742,2.0747,2.073,2.0727,2.0733,2.0717,2.0731,2.0723,2.0736,2.0708,2.0702,2.075,2.075,2.0751,2.0751,2.0751,2.073,2.0723,2.0722,2.0709,2.0698,2.0702,2.0687,2.0692,2.0696,2.0689,2.0682,2.0682,2.0683,2.0686,2.0686,2.0686,2.0686,2.0685,2.0685,2.0693,2.0693,2.0681,2.0675,2.067,2.0664,2.0664,2.0658,2.0653,2.0658,2.0658,2.0664,2.0706,2.0715,2.0684,2.0684,2.0684,2.0684,2.0684,2.0641,2.0655,2.0636,2.0631,2.0625,2.0614,2.0623,2.0612,2.0608,2.06,2.061,2.0641,2.0644,2.0647,2.0655,2.061,2.061,2.061,2.061,2.0611,2.0615,2.0597,2.059,2.0583,2.0589,2.0567,2.0567,2.0569,2.0567,2.0575,2.0587,2.059,2.0591,2.0596,2.0603,2.0546,2.0546,2.0546,2.0579,2.0583,2.0563,2.0567,2.0564,2.0561,2.054,2.053,2.0535,2.0543,2.0566,2.0568,2.0587,2.0593,2.0599,2.0606,2.0619,0,0]}]]